#timestamp,LO_Frequency,Hit,StdDev 
1552071615.1,286046999.3,N
1552071635.9,286046998.3,N
1552071655.7,286046996.5,N
1552071675.5,286046996.9,N
1552071695.4,286046996.5,Y
1552071715.2,286046999.8,P
1552071735.1,286047002.7,N
1552071736.0,286047002.7,N
1552071755.8,286047000.8,N
1552071775.6,286047000.3,N
1552071795.5,286047000.2,N
1552071815.3,286047002.7,N
1552071835.1,286047002.4,N
1552071855.9,286047001.9,N
1552071875.7,286047002.7,N
1552071895.6,286047000.4,N
1552071915.4,286047000.0,N
1552071935.2,286046998.3,N
1552071955.1,286046996.8,N
1552071956.0,286046996.8,N
1552071975.8,286046996.7,N
1552071995.6,286046999.5,N
1552072015.5,286046999.4,N
1552072035.3,286046999.2,N
1552072055.2,286046999.5,N
1552072075.9,286046999.3,N
1552072095.7,286046999.4,N
1552072115.6,286046999.5,N
1552072135.4,286046996.9,N
1552072155.2,286046999.6,N
1552072175.1,286046997.5,N
1552072176.0,286046997.5,N
1552072195.8,286046997.9,N
1552072215.7,286046997.1,N
1552072235.5,286046999.9,N
1552072255.3,286047002.6,N
1552072275.2,286047003.3,N
1552072295.0,286047006.9,Y
1552072295.9,286047006.9,P
1552072315.8,286047009.1,N
1552072335.6,286047009.3,N
1552072355.4,286047010.9,N
1552072375.3,286047012.9,Y
1552072395.1,286047006.7,P
1552072415.8,286047008.7,P
1552072435.7,286047007.8,P
1552072455.5,286047011.4,Y
1552072475.4,286047006.9,P
1552072495.2,286047006.6,P
1552072515.0,286047007.7,P
1552072515.9,286047007.7,Y
1552072535.8,286047003.2,P
1552072555.6,286047004.1,N
1552072575.5,286047005.2,P
1552072595.3,286047006.9,Y
1552072615.1,286047002.2,P
1552072635.9,286047001.7,N
1552072655.7,286047003.8,N
1552072675.6,286047003.5,N
1552072695.4,286047005.4,Y
1552072715.2,286047004.0,P
1552072735.1,286047004.4,P
1552072736.0,286047004.4,P
1552072755.8,286047003.8,Y
1552072775.7,286047001.2,P
1552072795.5,286046998.2,N
1552072815.3,286047000.6,N
1552072835.2,286047001.2,N
1552072855.0,286046998.5,N
1552072855.9,286046998.5,N
1552072875.7,286047000.7,N
1552072895.6,286047000.8,N
1552072915.4,286046999.9,N
1552072935.3,286047002.8,N
1552072955.1,286046999.9,N
1552072975.8,286047001.7,N
1552072995.7,286047001.3,N
1552073015.5,286047002.5,N
1552073035.4,286047001.6,N
1552073055.2,286047004.0,N
1552073075.0,286047003.5,N
1552073075.9,286047003.5,N
1552073095.8,286047003.1,N
1552073115.6,286047003.2,N
1552073135.5,286047005.8,Y
1552073155.3,286047002.9,P
1552073175.1,286047005.3,P
1552073195.9,286047007.6,P
1552073215.7,286047007.0,N
1552073235.6,286047007.4,Y
1552073255.4,286047002.1,P
1552073275.2,286047002.5,N
1552073295.1,286046999.8,N
1552073296.0,286046999.8,N
1552073315.8,286047000.2,N
1552073335.6,286047000.0,N
1552073355.5,286047002.7,N
1552073375.3,286047001.7,N
1552073395.2,286047002.0,N
1552073415.9,286047001.4,N
1552073435.7,286047001.5,N
1552073455.6,286047003.2,N
1552073475.4,286047004.2,N
1552073495.2,286047003.6,N
1552073515.1,286047004.3,N
1552073516.0,286047004.3,N
1552073535.8,286047003.9,N
1552073555.7,286047003.8,N
1552073575.5,286047005.9,Y
1552073595.3,286047004.4,P
1552073615.2,286047003.4,P
1552073635.0,286047003.4,P
1552073635.9,286047003.4,Y
1552073655.8,286047000.7,P
1552073675.6,286046998.1,N
1552073695.4,286047001.0,N
1552073715.3,286046998.5,N
1552073735.1,286046997.4,N
1552073755.8,286046996.7,N
1552073775.7,286046997.5,N
1552073795.5,286046997.0,N
1552073815.4,286046999.4,N
1552073835.2,286046999.0,N
1552073855.0,286047001.0,N
1552073855.9,286047001.0,N
1552073875.8,286046998.6,N
1552073895.6,286046998.1,N
1552073915.4,286046999.5,N
1552073935.3,286046999.0,N
1552073955.1,286047011.9,Y
1552073975.9,286046998.7,P
1552073995.7,286046998.5,P
1552074015.5,286046998.1,P
1552074035.4,286047000.8,N
1552074055.2,286046999.0,N
1552074075.0,286047001.2,N
1552074076.0,286047011.9,Y
1552074095.8,286047000.0,P
1552074115.6,286047000.2,N
1552074135.5,286047001.8,P
1552074155.3,286047001.8,N
1552074175.1,286047002.2,N
1552074195.9,286047004.1,Y
1552074215.7,286047002.0,P
1552074235.6,286047002.0,P
1552074255.4,286047003.9,P
1552074275.2,286047003.6,Y
1552074295.1,286046999.7,P
1552074296.0,286046999.7,N
1552074315.8,286047000.4,N
1552074335.7,286047000.6,N
1552074355.5,286046998.1,N
1552074375.3,286047001.1,N
1552074395.2,286047000.4,N
1552074415.0,286047000.4,N
1552074415.9,286047000.4,N
1552074435.7,286047000.0,N
1552074455.6,286047002.2,N
1552074475.4,286047000.9,N
1552074495.3,286046999.8,N
1552074515.1,286047004.4,Y
1552074535.8,286047005.6,P
1552074555.7,286047003.3,N
1552074575.5,286047003.6,N
1552074595.3,286047001.4,N
1552074615.2,286047003.3,N
1552074635.0,286047003.1,N
1552074635.9,286047003.1,N
1552074655.8,286047002.0,N
1552074675.6,286046999.7,N
1552074695.4,286047000.4,N
1552074715.3,286046998.7,N
1552074735.1,286046998.0,N
1552074755.9,286046994.2,N
1552074775.7,286046993.0,N
1552074795.5,286046988.9,Y
1552074815.4,286046988.2,P
1552074835.2,286046984.3,N
1552074855.1,286046983.1,N
1552074856.0,286046983.1,N
1552074875.8,286046983.5,N
1552074895.6,286046979.1,Y
1552074915.5,286046992.8,P
1552074935.3,286046991.5,P
1552074955.1,286046989.1,P
1552074975.9,286046987.9,Y
1552074995.7,286046997.4,P
1552075015.6,286046997.3,N
1552075035.4,286046997.0,N
1552075055.2,286046998.8,N
1552075075.1,286046998.2,N
1552075076.0,286046998.2,N
1552075095.8,286047000.7,N
1552075115.7,286047011.9,Y
1552075135.5,286047007.5,P
1552075155.3,286047008.9,N
1552075175.2,286047009.8,N
1552075195.0,286047011.6,N
1552075195.9,286047011.6,N
